Regional Weather Roundup
Issued by NWS

Current Version | Previous Version | Text Only | Print | Product List | Glossary On
Versions: 1 2 3 4 5 6 7 8 9 10 11 12 13 14 15 16 17 18 19 20 21 22 23 24 25 26 27 28 29 30 31 32 33 34 35 36 37 38 39 40 41 42 43 44 45 46 47 48 49 50
000
ASUS43 KOAX 092203
RWRNE

WEATHER ROUNDUP FOR NEBRASKA
NATIONAL WEATHER SERVICE OMAHA NE
500 PM CDT SUN MAY 09 2021

NOTES: SATELLITE DATA IS BEING USED TO AUGMENT CLOUD COVER ABOVE
       12000 FEET.
       "FAIR" INDICATES FEW OR NO CLOUDS BELOW 12,000 FEET WITH NO
       SIGNIFICANT WEATHER AND/OR OBSTRUCTIONS TO VISIBILITY.


NEZ001>004-019>022-054>056-092300-
NEBRASKA PANHANDLE

CITY           SKY/WX    TMP DP  RH WIND       PRES   REMARKS
SCOTTSBLUFF    MOSUNNY   62  16  16 W7        30.00F
ALLIANCE       MOSUNNY   56  28  34 CALM      30.03F
CHADRON        MOSUNNY   59  27  29 VRB6      30.02F
GORDON         MOSUNNY   52  35  51 N23       30.04S
KIMBALL        CLOUDY    51  27  39 SW6       30.05R
SIDNEY         PTSUNNY   56  26  31 VRB3      30.02F
$$

NEZ057>060-069>072-079>082-092300-
SOUTHWEST NEBRASKA

CITY           SKY/WX    TMP DP  RH WIND       PRES   REMARKS
NORTH PLATTE   MOSUNNY   58  35  42 VRB7      30.07S
IMPERIAL       MOSUNNY   58  30  34 NE12G22   30.06S
LEXINGTON      PTSUNNY   53  35  50 NE12      30.09S
MCCOOK         MOSUNNY   58  34  40 E10G17    30.06S
OGALLALA       SUNNY     58  26  28 CALM      30.05S
$$

NEZ005>010-023>029-035>040-094-092300-
NORTH CENTRAL NEBRASKA

CITY           SKY/WX    TMP DP  RH WIND       PRES   REMARKS
VALENTINE      MOSUNNY   55  36  48 SE5       30.08F
AINSWORTH      CLOUDY    47  35  64 CALM      30.10F
BROKEN BOW     CLOUDY    50  36  58 MISG      30.09F
O`NEILL        CLOUDY    49  33  52 CALM      30.11F
ORD            CLOUDY    50  36  58 N8        30.09F
$$

NEZ041-046>049-061>064-073>077-083>087-092300-
SOUTH CENTRAL NEBRASKA

CITY           SKY/WX    TMP DP  RH WIND       PRES   REMARKS
GRAND ISLAND   CLOUDY    52  37  56 N7        30.10S
AURORA         CLOUDY    52  39  60 NE5       30.09S
HASTINGS       CLOUDY    50  40  68 E7        30.10F
HEBRON         CLOUDY    52  41  66 N3        30.09S
HOLDREGE       CLOUDY    51  37  60 NE12      30.09S
KEARNEY        CLOUDY    49  37  63 N8        30.10S
YORK           CLOUDY    52  39  62 NE7G13    30.08F
$$

NEZ011>018-030>034-042>045-092300-
NORTHEAST NEBRASKA

CITY           SKY/WX    TMP DP  RH WIND       PRES   REMARKS
NORFOLK        CLOUDY    55  32  41 N9G16     30.08F
ALBION         CLOUDY    51  36  55 N7        30.10S
BLAIR          MOSUNNY   56  37  48 N5        30.05F
COLUMBUS       MOSUNNY   55  35  47 N10       30.08F
FREMONT        PTSUNNY   58  37  46 E3        30.07F
TEKAMAH        CLOUDY    60  39  45 N8        30.06S
WAYNE          CLOUDY    55  38  51 N9        30.08S
$$

NEZ050>053-065>068-078-088>093-092300-
SOUTHEAST NEBRASKA

CITY           SKY/WX    TMP DP  RH WIND       PRES   REMARKS
LINCOLN        CLOUDY    55  37  50 N9        30.08S
OMAHA EPPLEY   PTSUNNY   59  38  45 N7        30.05S
BEATRICE       CLOUDY    53  39  58 NE9       30.08S
FALLS CITY     CLOUDY    53  43  68 N5        30.06R
NEBRASKA CITY  PTSUNNY   55  40  56 NE7G16    30.05S
$$

NEZ044-045-051>053-067-092300-
OMAHA AREA

CITY           SKY/WX    TMP DP  RH WIND       PRES   REMARKS
OMAHA EPPLEY   PTSUNNY   59  38  45 N7        30.05S
BLAIR          MOSUNNY   56  37  48 N5        30.05F
FREMONT        PTSUNNY   58  37  46 E3        30.07F
MILLARD        PTSUNNY   58  35  42 NE3       30.06F
WAHOO          PTSUNNY   57  37  47 NE7       30.07F
$$



USA.gov is the U.S. government's official web portal to all federal, state and local government web resources and services.